Raleigh, NC

11:27 PM EDT on August 24, 2016 (GMT -0400)
Raleigh-Durham International

Weather History for KRDU - April, 2012

Change the Weather History Date:

Monday, April 16, 2012

  Actual Average Record
Temperature  
Mean Temperature 72 °F 60 °F  
Max Temperature 84 °F 73 °F 92 °F (1941)
Min Temperature 60 °F 48 °F 28 °F (1950)
Degree Days  
Heating Degree Days 0 6  
Month to date heating degree days 117 124  
Since 1 July heating degree days 2443 3120  
Cooling Degree Days 7 2  
Month to date cooling degree days 18 19  
Year to date cooling degree days 66 31  
Growing Degree Days 22 (Base 50)    
Moisture  
Dew Point 58 °F    
Average Humidity 62    
Maximum Humidity 84    
Minimum Humidity 40    
Precipitation  
Precipitation 0.00 in 0.09 in 2.64 in (1933)
Month to date precipitation 0.84 1.62  
Year to date precipitation 10.10 12.46  
Snow  
Snow 0.00 in 0.00 in T in (1905)
Month to date snowfall 0.0 0.1  
Since 1 July snowfall 0.9 6.1  
Snow Depth 0.00 in    
Sea Level Pressure  
Sea Level Pressure 30.14 in    
Wind  
Wind Speed 12 mph (SW)    
Max Wind Speed 23 mph    
Max Gust Speed 30 mph    
Visibility 10 miles    
Events      
T = Trace of Precipitation, MM = Missing Value Source: NWS Daily Summary

Daily Weather History Graph

Daily Weather History Graph

Search for Another Location

Airport or City:

Trip Planner

Search our weather history database for the weather conditions in past years. The results will help you decide how hot, cold, wet, or windy it might be!

Date:

Astronomy

Apr. 16, 2012 Rise Set
Actual Time 6:40 AM EDT 7:49 PM EDT
Civil Twilight 6:13 AM EDT 8:16 PM EDT
Nautical Twilight 5:42 AM EDT 8:47 PM EDT
Astronomical Twilight 5:09 AM EDT 9:20 PM EDT
Moon 3:59 AM EDT (4/16) 3:50 PM EDT (4/16)
Length of Visible Light 14h 02m
Length of Day
13h 09m
Waning Crescent, 19% of the Moon is Illuminated
Apr 16
Waning Crescent
Apr 21
New
Apr 29
First Quarter
May 5
Full
May 12
Last Quarter

Hourly Weather History & Observations

Time (EDT) Temp. Heat Index Dew Point Humidity Pressure Visibility Wind Dir Wind Speed Gust Speed Precip Events Conditions
12:51 AM 68.0 °F - 59.0 °F 73% 30.16 in 10.0 mi SSW 11.5 mph - N/A   Scattered Clouds
1:51 AM 66.9 °F - 59.0 °F 76% 30.15 in 10.0 mi SW 11.5 mph - N/A   Mostly Cloudy
2:51 AM 64.9 °F - 57.9 °F 78% 30.14 in 10.0 mi SW 11.5 mph - N/A   Mostly Cloudy
3:51 AM 63.0 °F - 57.0 °F 81% 30.14 in 10.0 mi SW 9.2 mph - N/A   Mostly Cloudy
4:51 AM 61.0 °F - 55.9 °F 83% 30.14 in 10.0 mi SW 8.1 mph - N/A   Scattered Clouds
5:51 AM 61.0 °F - 55.9 °F 83% 30.14 in 10.0 mi SW 10.4 mph - N/A   Clear
6:51 AM 60.8 °F - 55.4 °F 82% 30.17 in 10.0 mi SW 8.1 mph - N/A   Partly Cloudy
7:51 AM 62.1 °F - 57.0 °F 84% 30.20 in 10.0 mi SW 10.4 mph - N/A   Clear
8:51 AM 66.9 °F - 57.0 °F 70% 30.19 in 10.0 mi WSW 12.7 mph 18.4 mph N/A   Clear
9:51 AM 70.0 °F - 57.9 °F 65% 30.20 in 10.0 mi WSW 11.5 mph 21.9 mph N/A   Clear
10:51 AM 73.9 °F - 59.0 °F 59% 30.20 in 10.0 mi WSW 13.8 mph 21.9 mph N/A   Clear
11:51 AM 78.8 °F - 59.0 °F 51% 30.20 in 10.0 mi SW 15.0 mph 25.3 mph N/A   Partly Cloudy
12:51 PM 80.1 °F 80.9 °F 60.1 °F 50% 30.17 in 10.0 mi WSW 13.8 mph 23.0 mph N/A   Partly Cloudy
1:51 PM 82.0 °F 82.4 °F 60.1 °F 47% 30.14 in 10.0 mi SW 19.6 mph 24.2 mph N/A   Scattered Clouds
2:51 PM 82.9 °F 82.8 °F 59.0 °F 44% 30.12 in 10.0 mi WSW 19.6 mph 27.6 mph N/A   Scattered Clouds
3:51 PM 84.0 °F 83.5 °F 57.9 °F 41% 30.10 in 10.0 mi WSW 19.6 mph 25.3 mph N/A   Scattered Clouds
4:51 PM 84.0 °F 83.3 °F 57.0 °F 40% 30.09 in 10.0 mi WSW 10.4 mph 26.5 mph N/A   Partly Cloudy
5:51 PM 82.9 °F 82.1 °F 55.9 °F 39% 30.07 in 10.0 mi WSW 16.1 mph - N/A   Partly Cloudy
6:51 PM 81.0 °F 81.0 °F 57.0 °F 44% 30.07 in 10.0 mi WSW 11.5 mph - N/A   Partly Cloudy
7:51 PM 73.9 °F - 57.0 °F 55% 30.08 in 10.0 mi WSW 6.9 mph - N/A   Partly Cloudy
8:51 PM 73.9 °F - 57.0 °F 55% 30.09 in 10.0 mi South 5.8 mph - N/A   Partly Cloudy
9:51 PM 72.0 °F - 57.9 °F 61% 30.11 in 10.0 mi SSW 8.1 mph - N/A   Partly Cloudy
10:51 PM 71.1 °F - 57.9 °F 63% 30.11 in 10.0 mi SSW 9.2 mph - N/A   Partly Cloudy
11:51 PM 69.1 °F - 57.9 °F 68% 30.11 in 10.0 mi SW 6.9 mph - N/A   Partly Cloudy